Regional Weather Roundup
Issued by NWS

Home | Current Version | Previous Version | Text Only | Print | Product List | Glossary On
Versions: 1 2 3 4 5 6 7 8 9 10 11 12 13 14 15 16 17 18 19 20 21 22 23 24 25 26 27 28 29 30 31 32 33 34 35 36 37 38 39 40 41 42 43 44 45 46 47 48 49 50
456
ASUS43 KOAX 220910
RWRNE

WEATHER ROUNDUP FOR NEBRASKA
NATIONAL WEATHER SERVICE OMAHA NE
400 AM CDT SUN APR 22 2018

NOTES: SATELLITE DATA IS BEING USED TO AUGMENT CLOUD COVER ABOVE
       12000 FEET.
       "FAIR" INDICATES FEW OR NO CLOUDS BELOW 12,000 FEET WITH NO
       SIGNIFICANT WEATHER AND/OR OBSTRUCTIONS TO VISIBILITY.


NEZ001>004-019>022-054>056-221000-
NEBRASKA PANHANDLE

CITY           SKY/WX    TMP DP  RH WIND       PRES   REMARKS
SCOTTSBLUFF    CLEAR     33  33 100 E8        30.15F WCI  26
ALLIANCE       MOCLDY    34  33  96 S8        30.16F WCI  27
CHADRON        CLEAR     36  34  92 SW8       30.15S WCI  30
GORDON         FAIR      33  32  95 CALM      30.16F
KIMBALL        FOG       36  36 100 S8        30.15F VSB 3/4 WCI  29
SIDNEY         CLOUDY    37  33  85 SW10      30.17S WCI  30
$$

NEZ057>060-069>072-079>082-221000-
SOUTHWEST NEBRASKA

CITY           SKY/WX    TMP DP  RH WIND       PRES   REMARKS
NORTH PLATTE   CLOUDY    40  38  93 CALM      30.22S FOG
IMPERIAL       CLOUDY    40  39  97 CALM      30.21S
LEXINGTON      CLOUDY    40  37  89 CALM      30.22S
MCCOOK         CLOUDY    40  39  97 N5        30.21S FOG
OGALLALA       CLOUDY    37  36  98 CALM      30.21S FOG
$$

NEZ005>010-023>029-035>040-094-221000-
NORTH CENTRAL NEBRASKA

CITY           SKY/WX    TMP DP  RH WIND       PRES   REMARKS
VALENTINE      CLOUDY    40  37  89 SW3       30.21S
AINSWORTH      PTCLDY    37  35  94 S5        30.21F WCI  33
BROKEN BOW     PTCLDY    37  34  89 NW3       30.21F
O`NEILL        CLOUDY    42  38  86 CALM      30.24F
ORD            CLOUDY    40  38  93 CALM      30.22F
THEDFORD       CLOUDY    39  37  93 S5        30.22F
$$

NEZ041-046>049-061>064-073>077-083>087-221000-
SOUTH CENTRAL NEBRASKA

CITY           SKY/WX    TMP DP  RH WIND       PRES   REMARKS
GRAND ISLAND   MOCLDY    37  36  96 NW7       30.22R FOG     WCI  32
AURORA         CLOUDY    38  37  98 N7        30.21R WCI  33
HASTINGS       CLOUDY    39  39 100 NW8       30.21S WCI  33
HEBRON         CLOUDY    42  38  86 N5        30.19R
HOLDREGE       CLOUDY    38  38 100 N5        30.22R FOG     WCI  35
KEARNEY        CLOUDY    40  38  93 NW7       30.23R
YORK             N/A     37  37 100 N7        30.21S WCI  32
$$

NEZ011>018-030>034-042>045-221000-
NORTHEAST NEBRASKA

CITY           SKY/WX    TMP DP  RH WIND       PRES   REMARKS
NORFOLK        PTCLDY    36  33  89 W5        30.23R WCI  32
ALBION         MOCLDY    38  35  90 NW5       30.24R WCI  34
BLAIR          CLOUDY    46  31  56 NE8       30.22S
COLUMBUS       MOCLDY    37  31  78 N3        30.24R
FREMONT        CLOUDY    40  32  72 CALM      30.23R
TEKAMAH        CLOUDY    38  30  73 N6        30.24S WCI  33
WAYNE          CLEAR     38  37  95 CALM      30.25R
$$

NEZ050>053-065>068-078-088>093-221000-
SOUTHEAST NEBRASKA

CITY           SKY/WX    TMP DP  RH WIND       PRES   REMARKS
LINCOLN        CLOUDY    43  34  70 N8        30.21S
OMAHA EPPLEY   CLOUDY    48  30  49 NW7       30.22R
BEATRICE       CLOUDY    45  37  74 N8        30.17S
FALLS CITY     CLOUDY    48  31  51 NE8       30.14F
NEBRASKA CITY  CLOUDY    47  31  54 NE8       30.18F
PLATTSMOUTH    CLOUDY    49  31  51 NE10      30.19F
$$

NEZ044-045-051>053-067-221000-
OMAHA AREA

CITY           SKY/WX    TMP DP  RH WIND       PRES   REMARKS
OMAHA EPPLEY   CLOUDY    48  30  49 NW7       30.22R
BLAIR          CLOUDY    46  31  56 NE8       30.22S
FREMONT        CLOUDY    40  32  72 CALM      30.23R
MILLARD        CLOUDY    51  32  48 CALM      30.22S
OFFUTT AFB     CLOUDY    48  30  50 NE7       30.20S
PLATTSMOUTH    CLOUDY    49  31  51 NE10      30.19F
WAHOO          FAIR      39  29  66 N6        30.22S WCI  35
$$




USA.gov is the U.S. government's official web portal to all federal, state and local government web resources and services.